Year,Month,Day,Hour,Minute,Value (Times are PST for temperature in C)
2006,07,16,00,00,13.20
2006,07,16,00,01,13.20
2006,07,16,00,02,13.20
2006,07,16,00,03,13.20
2006,07,16,00,04,13.20
2006,07,16,00,05,13.20
2006,07,16,00,06,13.10
2006,07,16,00,07,13.10
2006,07,16,00,08,13.10
2006,07,16,00,09,13.10
2006,07,16,00,10,13.00
2006,07,16,00,11,13.00
2006,07,16,00,12,12.90
2006,07,16,00,13,12.90
2006,07,16,00,14,12.90
2006,07,16,00,15,12.80
2006,07,16,00,16,12.80
2006,07,16,00,17,12.80
2006,07,16,00,18,12.80
2006,07,16,00,19,12.70
2006,07,16,00,20,12.70
2006,07,16,00,21,12.70
2006,07,16,00,22,12.60
2006,07,16,00,23,12.60
2006,07,16,00,24,12.50
2006,07,16,00,25,12.50
2006,07,16,00,26,12.40
2006,07,16,00,27,12.40
2006,07,16,00,28,12.40
2006,07,16,00,29,12.30
2006,07,16,00,30,12.30
2006,07,16,00,31,12.20
2006,07,16,00,32,12.20
2006,07,16,00,33,12.20
2006,07,16,00,34,12.10
2006,07,16,00,35,12.10
2006,07,16,00,36,12.10
2006,07,16,00,37,12.00
2006,07,16,00,38,12.00
2006,07,16,00,39,11.90
2006,07,16,00,40,11.80
2006,07,16,00,41,11.80
2006,07,16,00,42,11.70
2006,07,16,00,43,11.70
2006,07,16,00,44,11.60
2006,07,16,00,45,11.60
2006,07,16,00,46,11.60
2006,07,16,00,47,11.50
2006,07,16,00,48,11.50
2006,07,16,00,49,11.50
2006,07,16,00,50,11.40
2006,07,16,00,51,11.40
2006,07,16,00,52,11.40
2006,07,16,00,53,11.30
2006,07,16,00,54,11.30
2006,07,16,00,55,11.30
2006,07,16,00,56,11.30
2006,07,16,00,57,11.20
2006,07,16,00,58,11.20
2006,07,16,00,59,11.20
2006,07,16,01,00,11.10
2006,07,16,01,01,11.10
2006,07,16,01,02,11.10
2006,07,16,01,03,11.00
2006,07,16,01,04,11.00
2006,07,16,01,05,10.90
2006,07,16,01,06,10.90
2006,07,16,01,07,10.90
2006,07,16,01,08,10.90
2006,07,16,01,09,10.90
2006,07,16,01,10,10.80
2006,07,16,01,11,10.80
2006,07,16,01,12,10.80
2006,07,16,01,13,10.80
2006,07,16,01,14,10.80
2006,07,16,01,15,10.80
2006,07,16,01,16,10.90
2006,07,16,01,17,10.90
2006,07,16,01,18,10.90
2006,07,16,01,19,11.00
2006,07,16,01,20,11.00
2006,07,16,01,21,11.10
2006,07,16,01,22,11.20
2006,07,16,01,23,11.20
2006,07,16,01,24,11.20
2006,07,16,01,25,11.20
2006,07,16,01,26,11.20
2006,07,16,01,27,11.20
2006,07,16,01,28,11.20
2006,07,16,01,29,11.20
2006,07,16,01,30,11.20
2006,07,16,01,31,11.20
2006,07,16,01,32,11.20
2006,07,16,01,33,11.10
2006,07,16,01,34,11.10
2006,07,16,01,35,11.10
2006,07,16,01,36,11.00
2006,07,16,01,37,11.00
2006,07,16,01,38,10.90
2006,07,16,01,39,10.90
2006,07,16,01,40,10.80
2006,07,16,01,41,10.80
2006,07,16,01,42,10.80
2006,07,16,01,43,10.80
2006,07,16,01,44,10.80
2006,07,16,01,45,10.70
2006,07,16,01,46,10.70
2006,07,16,01,47,10.70
2006,07,16,01,48,10.60
2006,07,16,01,49,10.60
2006,07,16,01,50,10.60
2006,07,16,01,51,10.50
2006,07,16,01,52,10.50
2006,07,16,01,53,10.40
2006,07,16,01,54,10.40
2006,07,16,01,55,10.40
2006,07,16,01,56,10.30
2006,07,16,01,57,10.30
2006,07,16,01,58,10.30
2006,07,16,01,59,10.30
2006,07,16,02,00,10.30
2006,07,16,02,01,10.20
2006,07,16,02,02,10.20
2006,07,16,02,03,10.20
2006,07,16,02,04,10.20
2006,07,16,02,05,10.20
2006,07,16,02,06,10.20
2006,07,16,02,07,10.20
2006,07,16,02,08,10.20
2006,07,16,02,09,10.20
2006,07,16,02,10,10.10
2006,07,16,02,11,10.10
2006,07,16,02,12,10.10
2006,07,16,02,13,10.10
2006,07,16,02,14,10.10
2006,07,16,02,15,10.10
2006,07,16,02,16,10.10
2006,07,16,02,17,10.00
2006,07,16,02,18,10.00
2006,07,16,02,19,10.00
2006,07,16,02,20,9.90
2006,07,16,02,21,9.90
2006,07,16,02,22,9.90
2006,07,16,02,23,9.90
2006,07,16,02,24,9.90
2006,07,16,02,25,9.90
2006,07,16,02,26,9.90
2006,07,16,02,27,9.90
2006,07,16,02,28,9.90
2006,07,16,02,29,9.80
2006,07,16,02,30,9.80
2006,07,16,02,31,9.80
2006,07,16,02,32,9.80
2006,07,16,02,33,9.80
2006,07,16,02,34,9.80
2006,07,16,02,35,9.80
2006,07,16,02,36,9.80
2006,07,16,02,37,9.80
2006,07,16,02,38,9.70
2006,07,16,02,39,9.70
2006,07,16,02,40,9.70
2006,07,16,02,41,9.70
2006,07,16,02,42,9.70
2006,07,16,02,43,9.70
2006,07,16,02,44,9.70
2006,07,16,02,45,9.60
2006,07,16,02,46,9.60
2006,07,16,02,47,9.60
2006,07,16,02,48,9.60
2006,07,16,02,49,9.60
2006,07,16,02,50,9.60
2006,07,16,02,51,9.60
2006,07,16,02,52,9.50
2006,07,16,02,53,9.50
2006,07,16,02,54,9.50
2006,07,16,02,55,9.40
2006,07,16,02,56,9.40
2006,07,16,02,57,9.40
2006,07,16,02,58,9.40
2006,07,16,02,59,9.40
2006,07,16,03,00,9.40
2006,07,16,03,01,9.30
2006,07,16,03,02,9.30
2006,07,16,03,03,9.30
2006,07,16,03,04,9.30
2006,07,16,03,05,9.30
2006,07,16,03,06,9.30
2006,07,16,03,07,9.30
2006,07,16,03,08,9.20
2006,07,16,03,09,9.20
2006,07,16,03,10,9.20
2006,07,16,03,11,9.20
2006,07,16,03,12,9.20
2006,07,16,03,13,9.20
2006,07,16,03,14,9.20
2006,07,16,03,15,9.20
2006,07,16,03,16,9.20
2006,07,16,03,17,9.20
2006,07,16,03,18,9.20
2006,07,16,03,19,9.20
2006,07,16,03,20,9.20
2006,07,16,03,21,9.20
2006,07,16,03,22,9.20
2006,07,16,03,23,9.20
2006,07,16,03,24,9.20
2006,07,16,03,25,9.10
2006,07,16,03,26,9.10
2006,07,16,03,27,9.10
2006,07,16,03,28,9.10
2006,07,16,03,29,9.10
2006,07,16,03,30,9.10
2006,07,16,03,31,9.10
2006,07,16,03,32,9.10
2006,07,16,03,33,9.00
2006,07,16,03,34,9.00
2006,07,16,03,35,9.00
2006,07,16,03,36,9.00
2006,07,16,03,37,9.00
2006,07,16,03,38,9.00
2006,07,16,03,39,9.00
2006,07,16,03,40,9.00
2006,07,16,03,41,9.00
2006,07,16,03,42,9.00
2006,07,16,03,43,9.00
2006,07,16,03,44,9.00
2006,07,16,03,45,9.00
2006,07,16,03,46,9.00
2006,07,16,03,47,9.00
2006,07,16,03,48,9.00
2006,07,16,03,49,9.00
2006,07,16,03,50,8.90
2006,07,16,03,51,8.90
2006,07,16,03,52,8.90
2006,07,16,03,53,8.90
2006,07,16,03,54,8.90
2006,07,16,03,55,8.90
2006,07,16,03,56,8.90
2006,07,16,03,57,8.90
2006,07,16,03,58,8.80
2006,07,16,03,59,8.80
2006,07,16,04,00,8.80
2006,07,16,04,01,8.80
2006,07,16,04,02,8.80
2006,07,16,04,03,8.80
2006,07,16,04,04,8.80
2006,07,16,04,05,8.80
2006,07,16,04,06,8.70
2006,07,16,04,07,8.70
2006,07,16,04,08,8.70
2006,07,16,04,09,8.70
2006,07,16,04,10,8.70
2006,07,16,04,11,8.70
2006,07,16,04,12,8.70
2006,07,16,04,13,8.70
2006,07,16,04,14,8.70
2006,07,16,04,15,8.70
2006,07,16,04,16,8.60
2006,07,16,04,17,8.60
2006,07,16,04,18,8.60
2006,07,16,04,19,8.60
2006,07,16,04,20,8.60
2006,07,16,04,21,8.60
2006,07,16,04,22,8.60
2006,07,16,04,23,8.60
2006,07,16,04,24,8.60
2006,07,16,04,25,8.60
2006,07,16,04,26,8.60
2006,07,16,04,27,8.50
2006,07,16,04,28,8.50
2006,07,16,04,29,8.50
2006,07,16,04,30,8.50
2006,07,16,04,31,8.50
2006,07,16,04,32,8.40
2006,07,16,04,33,8.40
2006,07,16,04,34,8.40
2006,07,16,04,35,8.40
2006,07,16,04,36,8.40
2006,07,16,04,37,8.40
2006,07,16,04,38,8.40
2006,07,16,04,39,8.30
2006,07,16,04,40,8.30
2006,07,16,04,41,8.30
2006,07,16,04,42,8.30
2006,07,16,04,43,8.30
2006,07,16,04,44,8.30
2006,07,16,04,45,8.30
2006,07,16,04,46,8.30
2006,07,16,04,47,8.30
2006,07,16,04,48,8.30
2006,07,16,04,49,8.30
2006,07,16,04,50,8.30
2006,07,16,04,51,8.30
2006,07,16,04,52,8.30
2006,07,16,04,53,8.30
2006,07,16,04,54,8.30
2006,07,16,04,55,8.30
2006,07,16,04,56,8.30
2006,07,16,04,57,8.30
2006,07,16,04,58,8.30
2006,07,16,04,59,8.20
2006,07,16,05,00,8.20
2006,07,16,05,01,8.20
2006,07,16,05,02,8.20
2006,07,16,05,03,8.20
2006,07,16,05,04,8.20
2006,07,16,05,05,8.20
2006,07,16,05,06,8.20
2006,07,16,05,07,8.10
2006,07,16,05,08,8.10
2006,07,16,05,09,8.10
2006,07,16,05,10,8.10
2006,07,16,05,11,8.10
2006,07,16,05,12,8.10
2006,07,16,05,13,8.10
2006,07,16,05,14,8.00
2006,07,16,05,15,8.00
2006,07,16,05,16,8.00
2006,07,16,05,17,8.00
2006,07,16,05,18,7.90
2006,07,16,05,19,7.90
2006,07,16,05,20,7.90
2006,07,16,05,21,7.90
2006,07,16,05,22,7.90
2006,07,16,05,23,7.90
2006,07,16,05,24,7.90
2006,07,16,05,25,7.90
2006,07,16,05,26,7.90
2006,07,16,05,27,7.90
2006,07,16,05,28,7.80
2006,07,16,05,29,7.80
2006,07,16,05,30,7.80
2006,07,16,05,31,7.80
2006,07,16,05,32,7.80
2006,07,16,05,33,7.80
2006,07,16,05,34,7.80
2006,07,16,05,35,7.80
2006,07,16,05,36,7.80
2006,07,16,05,37,7.80
2006,07,16,05,38,7.80
2006,07,16,05,39,7.80
2006,07,16,05,40,7.80
2006,07,16,05,41,7.80
2006,07,16,05,42,7.80
2006,07,16,05,43,7.80
2006,07,16,05,44,7.80
2006,07,16,05,45,7.80
2006,07,16,05,46,7.80
2006,07,16,05,47,7.80
2006,07,16,05,48,7.80
2006,07,16,05,49,7.80
2006,07,16,05,50,7.80
2006,07,16,05,51,7.70
2006,07,16,05,52,7.70
2006,07,16,05,53,7.70
2006,07,16,05,54,7.70
2006,07,16,05,55,7.70
2006,07,16,05,56,7.70
2006,07,16,05,57,7.70
2006,07,16,05,58,7.70
2006,07,16,05,59,7.70
2006,07,16,06,00,7.70
2006,07,16,06,01,7.70
2006,07,16,06,02,7.70
2006,07,16,06,03,7.70
2006,07,16,06,04,7.60
2006,07,16,06,05,7.60
2006,07,16,06,06,7.60
2006,07,16,06,07,7.60
2006,07,16,06,08,7.60
2006,07,16,06,09,7.70
2006,07,16,06,10,7.70
2006,07,16,06,11,7.60
2006,07,16,06,12,7.60
2006,07,16,06,13,7.60
2006,07,16,06,14,7.70
2006,07,16,06,15,7.70
2006,07,16,06,16,7.70
2006,07,16,06,17,7.70
2006,07,16,06,18,7.70
2006,07,16,06,19,7.70
2006,07,16,06,20,7.70
2006,07,16,06,21,7.70
2006,07,16,06,22,7.70
2006,07,16,06,23,7.70
2006,07,16,06,24,7.70
2006,07,16,06,25,7.60
2006,07,16,06,26,7.60
2006,07,16,06,27,7.60
2006,07,16,06,28,7.60
2006,07,16,06,29,7.60
2006,07,16,06,30,7.60
2006,07,16,06,31,7.60
2006,07,16,06,32,7.60
2006,07,16,06,33,7.60
2006,07,16,06,34,7.60
2006,07,16,06,35,7.60
2006,07,16,06,36,7.60
2006,07,16,06,37,7.60
2006,07,16,06,38,7.60
2006,07,16,06,39,7.60
2006,07,16,06,40,7.60
2006,07,16,06,41,7.60
2006,07,16,06,42,7.60
2006,07,16,06,43,7.60
2006,07,16,06,44,7.60
2006,07,16,06,45,7.60
2006,07,16,06,46,7.60
2006,07,16,06,47,7.60
2006,07,16,06,48,7.60
2006,07,16,06,49,7.60
2006,07,16,06,50,7.60
2006,07,16,06,51,7.60
2006,07,16,06,52,7.60
2006,07,16,06,53,7.60
2006,07,16,06,54,7.60
2006,07,16,06,55,7.70
2006,07,16,06,56,7.70
2006,07,16,06,57,7.70
2006,07,16,06,58,7.70
2006,07,16,06,59,7.70
2006,07,16,07,00,7.70
2006,07,16,07,01,7.70
2006,07,16,07,02,7.70
2006,07,16,07,03,7.70
2006,07,16,07,04,7.80
2006,07,16,07,05,7.80
2006,07,16,07,06,7.80
2006,07,16,07,07,7.80
2006,07,16,07,08,7.90
2006,07,16,07,09,7.90
2006,07,16,07,10,7.90
2006,07,16,07,11,7.90
2006,07,16,07,12,8.00
2006,07,16,07,13,8.00
2006,07,16,07,14,8.10
2006,07,16,07,15,8.20
2006,07,16,07,16,8.30
2006,07,16,07,17,8.30
2006,07,16,07,18,8.40
2006,07,16,07,19,8.50
2006,07,16,07,20,8.60
2006,07,16,07,21,8.70
2006,07,16,07,22,8.80
2006,07,16,07,23,8.90
2006,07,16,07,24,9.00
2006,07,16,07,25,9.10
2006,07,16,07,26,9.20
2006,07,16,07,27,9.30
2006,07,16,07,28,9.40
2006,07,16,07,29,9.50
2006,07,16,07,30,9.60
2006,07,16,07,31,9.70
2006,07,16,07,32,9.80
2006,07,16,07,33,9.90
2006,07,16,07,34,10.00
2006,07,16,07,35,10.10
2006,07,16,07,36,10.10
2006,07,16,07,37,10.20
2006,07,16,07,38,10.30
2006,07,16,07,39,10.30
2006,07,16,07,40,10.40
2006,07,16,07,41,10.50
2006,07,16,07,42,10.50
2006,07,16,07,43,10.60
2006,07,16,07,44,10.60
2006,07,16,07,45,10.70
2006,07,16,07,46,10.70
2006,07,16,07,47,10.70
2006,07,16,07,48,10.80
2006,07,16,07,49,10.80
2006,07,16,07,50,10.90
2006,07,16,07,51,10.90
2006,07,16,07,52,11.00
2006,07,16,07,53,11.10
2006,07,16,07,54,11.30
2006,07,16,07,55,11.40
2006,07,16,07,56,11.50
2006,07,16,07,57,11.60
2006,07,16,07,58,11.80
2006,07,16,07,59,11.90
2006,07,16,08,00,12.00
2006,07,16,08,01,12.20
2006,07,16,08,02,12.30
2006,07,16,08,03,12.40
2006,07,16,08,04,12.50
2006,07,16,08,05,12.70
2006,07,16,08,06,12.80
2006,07,16,08,07,12.90
2006,07,16,08,08,13.10
2006,07,16,08,09,13.30
2006,07,16,08,10,13.40
2006,07,16,08,11,13.60
2006,07,16,08,12,13.70
2006,07,16,08,13,13.80
2006,07,16,08,14,13.90
2006,07,16,08,15,14.00
2006,07,16,08,16,14.10
2006,07,16,08,17,14.10
2006,07,16,08,18,14.20
2006,07,16,08,19,14.20
2006,07,16,08,20,14.20
2006,07,16,08,21,14.20
2006,07,16,08,22,14.20
2006,07,16,08,23,14.20
2006,07,16,08,24,14.30
2006,07,16,08,25,14.40
2006,07,16,08,26,14.40
2006,07,16,08,27,14.50
2006,07,16,08,28,14.50
2006,07,16,08,29,14.60
2006,07,16,08,30,14.60
2006,07,16,08,31,14.70
2006,07,16,08,32,14.70
2006,07,16,08,33,14.80
2006,07,16,08,34,14.90
2006,07,16,08,35,15.00
2006,07,16,08,36,15.00
2006,07,16,08,37,15.00
2006,07,16,08,38,15.00
2006,07,16,08,39,15.00
2006,07,16,08,40,15.10
2006,07,16,08,41,15.30
2006,07,16,08,42,15.40
2006,07,16,08,43,15.50
2006,07,16,08,44,15.60
2006,07,16,08,45,15.70
2006,07,16,08,46,15.70
2006,07,16,08,47,15.80
2006,07,16,08,48,15.90
2006,07,16,08,49,15.90
2006,07,16,08,50,15.90
2006,07,16,08,51,16.00
2006,07,16,08,52,16.00
2006,07,16,08,53,16.10
2006,07,16,08,54,16.10
2006,07,16,08,55,16.20
2006,07,16,08,56,16.20
2006,07,16,08,57,16.20
2006,07,16,08,58,16.30
2006,07,16,08,59,16.30
2006,07,16,09,00,16.30
2006,07,16,09,01,16.40
2006,07,16,09,02,16.50
2006,07,16,09,03,16.60
2006,07,16,09,04,16.60
2006,07,16,09,05,16.60
2006,07,16,09,06,16.50
2006,07,16,09,07,16.50
2006,07,16,09,08,16.50
2006,07,16,09,09,16.50
2006,07,16,09,10,16.50
2006,07,16,09,11,16.50
2006,07,16,09,12,16.50
2006,07,16,09,13,16.60
2006,07,16,09,14,16.60
2006,07,16,09,15,16.60
2006,07,16,09,16,16.70
2006,07,16,09,17,16.70
2006,07,16,09,18,16.80
2006,07,16,09,19,16.80
2006,07,16,09,20,16.80
2006,07,16,09,21,16.90
2006,07,16,09,22,16.90
2006,07,16,09,23,17.00
2006,07,16,09,24,17.00
2006,07,16,09,25,17.00
2006,07,16,09,26,17.10
2006,07,16,09,27,17.10
2006,07,16,09,28,17.20
2006,07,16,09,29,17.30
2006,07,16,09,30,17.30
2006,07,16,09,31,17.30
2006,07,16,09,32,17.40
2006,07,16,09,33,17.50
2006,07,16,09,34,17.60
2006,07,16,09,35,17.70
2006,07,16,09,36,17.80
2006,07,16,09,37,17.90
2006,07,16,09,38,18.00
2006,07,16,09,39,18.10
2006,07,16,09,40,18.20
2006,07,16,09,41,18.30
2006,07,16,09,42,18.50
2006,07,16,09,43,18.60
2006,07,16,09,44,18.60
2006,07,16,09,45,18.60
2006,07,16,09,46,18.60
2006,07,16,09,47,18.60
2006,07,16,09,48,18.50
2006,07,16,09,49,18.30
2006,07,16,09,50,18.20
2006,07,16,09,51,18.20
2006,07,16,09,52,18.20
2006,07,16,09,53,18.20
2006,07,16,09,54,18.10
2006,07,16,09,55,18.10
2006,07,16,09,56,18.10
2006,07,16,09,57,18.10
2006,07,16,09,58,18.10
2006,07,16,09,59,18.10
2006,07,16,10,00,18.20
2006,07,16,10,01,18.30
2006,07,16,10,02,18.40
2006,07,16,10,03,18.40
2006,07,16,10,04,18.40
2006,07,16,10,05,18.40
2006,07,16,10,06,18.40
2006,07,16,10,07,18.50
2006,07,16,10,08,18.50
2006,07,16,10,09,18.60
2006,07,16,10,10,18.70
2006,07,16,10,11,18.70
2006,07,16,10,12,18.70
2006,07,16,10,13,18.80
2006,07,16,10,14,18.80
2006,07,16,10,15,18.80
2006,07,16,10,16,18.90
2006,07,16,10,17,18.90
2006,07,16,10,18,18.90
2006,07,16,10,19,18.90
2006,07,16,10,20,18.90
2006,07,16,10,21,18.90
2006,07,16,10,22,18.90
2006,07,16,10,23,18.90
2006,07,16,10,24,18.90
2006,07,16,10,25,18.90
2006,07,16,10,26,18.90
2006,07,16,10,27,18.90
2006,07,16,10,28,18.90
2006,07,16,10,29,19.00
2006,07,16,10,30,19.00
2006,07,16,10,31,19.10
2006,07,16,10,32,19.20
2006,07,16,10,33,19.30
2006,07,16,10,34,19.30
2006,07,16,10,35,19.30
2006,07,16,10,36,19.30
2006,07,16,10,37,19.40
2006,07,16,10,38,19.40
2006,07,16,10,39,19.40
2006,07,16,10,40,19.40
2006,07,16,10,41,19.30
2006,07,16,10,42,19.40
2006,07,16,10,43,19.40
2006,07,16,10,44,19.50
2006,07,16,10,45,19.70
2006,07,16,10,46,19.80
2006,07,16,10,47,19.80
2006,07,16,10,48,19.90
2006,07,16,10,49,20.00
2006,07,16,10,50,20.10
2006,07,16,10,51,20.10
2006,07,16,10,52,20.00
2006,07,16,10,53,20.00
2006,07,16,10,54,20.00
2006,07,16,10,55,20.10
2006,07,16,10,56,20.10
2006,07,16,10,57,20.20
2006,07,16,10,58,20.30
2006,07,16,10,59,20.20
2006,07,16,11,00,20.20
2006,07,16,11,01,20.20
2006,07,16,11,02,20.20
2006,07,16,11,03,20.20
2006,07,16,11,04,20.20
2006,07,16,11,05,20.20
2006,07,16,11,06,20.20
2006,07,16,11,07,20.30
2006,07,16,11,08,20.50
2006,07,16,11,09,20.60
2006,07,16,11,10,20.70
2006,07,16,11,11,20.90
2006,07,16,11,12,21.00
2006,07,16,11,13,21.10
2006,07,16,11,14,21.20
2006,07,16,11,15,21.20
2006,07,16,11,16,21.10
2006,07,16,11,17,21.00
2006,07,16,11,18,21.00
2006,07,16,11,19,21.00
2006,07,16,11,20,21.10
2006,07,16,11,21,21.00
2006,07,16,11,22,21.10
2006,07,16,11,23,21.10
2006,07,16,11,24,21.10
2006,07,16,11,25,21.20
2006,07,16,11,26,21.30
2006,07,16,11,27,21.40
2006,07,16,11,28,21.50
2006,07,16,11,29,21.40
2006,07,16,11,30,21.40
2006,07,16,11,31,21.30
2006,07,16,11,32,21.30
2006,07,16,11,33,21.40
2006,07,16,11,34,21.40
2006,07,16,11,35,21.40
2006,07,16,11,36,21.40
2006,07,16,11,37,21.40
2006,07,16,11,38,21.50
2006,07,16,11,39,21.60
2006,07,16,11,40,21.60
2006,07,16,11,41,21.60
2006,07,16,11,42,21.70
2006,07,16,11,43,21.80
2006,07,16,11,44,21.80
2006,07,16,11,45,21.90
2006,07,16,11,46,21.90
2006,07,16,11,47,21.90
2006,07,16,11,48,21.90
2006,07,16,11,49,21.90
2006,07,16,11,50,21.80
2006,07,16,11,51,21.70
2006,07,16,11,52,21.70
2006,07,16,11,53,21.70
2006,07,16,11,54,21.80
2006,07,16,11,55,21.90
2006,07,16,11,56,22.10
2006,07,16,11,57,22.20
2006,07,16,11,58,22.10
2006,07,16,11,59,22.00
2006,07,16,12,00,21.80
2006,07,16,12,01,21.70
2006,07,16,12,02,21.70
2006,07,16,12,03,21.70
2006,07,16,12,04,21.80
2006,07,16,12,05,21.90
2006,07,16,12,06,22.00
2006,07,16,12,07,22.20
2006,07,16,12,08,22.30
2006,07,16,12,09,22.50
2006,07,16,12,10,22.60
2006,07,16,12,11,22.80
2006,07,16,12,12,23.00
2006,07,16,12,13,23.00
2006,07,16,12,14,23.00
2006,07,16,12,15,22.90
2006,07,16,12,16,22.70
2006,07,16,12,17,22.50
2006,07,16,12,18,22.30
2006,07,16,12,19,22.30
2006,07,16,12,20,22.30
2006,07,16,12,21,22.30
2006,07,16,12,22,22.30
2006,07,16,12,23,22.20
2006,07,16,12,24,22.20
2006,07,16,12,25,22.20
2006,07,16,12,26,22.20
2006,07,16,12,27,22.30
2006,07,16,12,28,22.30
2006,07,16,12,29,22.30
2006,07,16,12,30,22.40
2006,07,16,12,31,22.50
2006,07,16,12,32,22.60
2006,07,16,12,33,22.80
2006,07,16,12,34,22.90
2006,07,16,12,35,23.00
2006,07,16,12,36,23.10
2006,07,16,12,37,23.20
2006,07,16,12,38,23.20
2006,07,16,12,39,23.10
2006,07,16,12,40,23.10
2006,07,16,12,41,23.10
2006,07,16,12,42,23.10
2006,07,16,12,43,23.10
2006,07,16,12,44,23.20
2006,07,16,12,45,23.20
2006,07,16,12,46,23.40
2006,07,16,12,47,23.50
2006,07,16,12,48,23.60
2006,07,16,12,49,23.80
2006,07,16,12,50,23.90
2006,07,16,12,51,23.90
2006,07,16,12,52,23.80
2006,07,16,12,53,23.80
2006,07,16,12,54,23.80
2006,07,16,12,55,23.80
2006,07,16,12,56,23.80
2006,07,16,12,57,23.80
2006,07,16,12,58,23.80
2006,07,16,12,59,23.80
2006,07,16,13,00,23.80
2006,07,16,13,01,23.70
2006,07,16,13,02,23.70
2006,07,16,13,03,23.70
2006,07,16,13,04,23.80
2006,07,16,13,05,23.80
2006,07,16,13,06,23.80
2006,07,16,13,07,23.70
2006,07,16,13,08,23.60
2006,07,16,13,09,23.60
2006,07,16,13,10,23.60
2006,07,16,13,11,23.60
2006,07,16,13,12,23.60
2006,07,16,13,13,23.70
2006,07,16,13,14,23.80
2006,07,16,13,15,23.90
2006,07,16,13,16,24.10
2006,07,16,13,17,24.20
2006,07,16,13,18,24.30
2006,07,16,13,19,24.30
2006,07,16,13,20,24.20
2006,07,16,13,21,24.10
2006,07,16,13,22,24.00
2006,07,16,13,23,24.00
2006,07,16,13,24,24.10
2006,07,16,13,25,24.20
2006,07,16,13,26,24.30
2006,07,16,13,27,24.40
2006,07,16,13,28,24.40
2006,07,16,13,29,24.40
2006,07,16,13,30,24.50
2006,07,16,13,31,24.60
2006,07,16,13,32,24.50
2006,07,16,13,33,24.30
2006,07,16,13,34,24.10
2006,07,16,13,35,23.90
2006,07,16,13,36,23.70
2006,07,16,13,37,23.80
2006,07,16,13,38,23.80
2006,07,16,13,39,23.80
2006,07,16,13,40,24.00
2006,07,16,13,41,24.10
2006,07,16,13,42,24.20
2006,07,16,13,43,24.20
2006,07,16,13,44,24.10
2006,07,16,13,45,24.00
2006,07,16,13,46,24.10
2006,07,16,13,47,24.10
2006,07,16,13,48,24.20
2006,07,16,13,49,24.30
2006,07,16,13,50,24.30
2006,07,16,13,51,24.30
2006,07,16,13,52,24.30
2006,07,16,13,53,24.30
2006,07,16,13,54,24.40
2006,07,16,13,55,24.40
2006,07,16,13,56,24.40
2006,07,16,13,57,24.40
2006,07,16,13,58,24.40
2006,07,16,13,59,24.40
2006,07,16,14,00,24.40
2006,07,16,14,01,24.40
2006,07,16,14,02,24.50
2006,07,16,14,03,24.50
2006,07,16,14,04,24.50
2006,07,16,14,05,24.50
2006,07,16,14,06,24.50
2006,07,16,14,07,24.40
2006,07,16,14,08,24.30
2006,07,16,14,09,24.30
2006,07,16,14,10,24.20
2006,07,16,14,11,24.30
2006,07,16,14,12,24.40
2006,07,16,14,13,24.50
2006,07,16,14,14,24.70
2006,07,16,14,15,24.90
2006,07,16,14,16,24.90
2006,07,16,14,17,24.80
2006,07,16,14,18,24.80
2006,07,16,14,19,24.70
2006,07,16,14,20,24.60
2006,07,16,14,21,24.40
2006,07,16,14,22,24.40
2006,07,16,14,23,24.40
2006,07,16,14,24,24.50
2006,07,16,14,25,24.50
2006,07,16,14,26,24.50
2006,07,16,14,27,24.50
2006,07,16,14,28,24.50
2006,07,16,14,29,24.40
2006,07,16,14,30,24.30
2006,07,16,14,31,24.30
2006,07,16,14,32,24.40
2006,07,16,14,33,24.50
2006,07,16,14,34,24.60
2006,07,16,14,35,24.60
2006,07,16,14,36,24.50
2006,07,16,14,37,24.50
2006,07,16,14,38,24.50
2006,07,16,14,39,24.50
2006,07,16,14,40,24.50
2006,07,16,14,41,24.30
2006,07,16,14,42,24.30
2006,07,16,14,43,24.40
2006,07,16,14,44,24.50
2006,07,16,14,45,24.60
2006,07,16,14,46,24.80
2006,07,16,14,47,24.80
2006,07,16,14,48,24.80
2006,07,16,14,49,24.80
2006,07,16,14,50,24.70
2006,07,16,14,51,24.80
2006,07,16,14,52,24.80
2006,07,16,14,53,24.90
2006,07,16,14,54,25.10
2006,07,16,14,55,25.20
2006,07,16,14,56,25.40
2006,07,16,14,57,25.60
2006,07,16,14,58,25.60
2006,07,16,14,59,25.60
2006,07,16,15,00,25.50
2006,07,16,15,01,25.50
2006,07,16,15,02,25.40
2006,07,16,15,03,25.40
2006,07,16,15,04,25.40
2006,07,16,15,05,25.30
2006,07,16,15,06,25.20
2006,07,16,15,07,25.30
2006,07,16,15,08,25.30
2006,07,16,15,09,25.40
2006,07,16,15,10,25.50
2006,07,16,15,11,25.70
2006,07,16,15,12,25.80
2006,07,16,15,13,25.90
2006,07,16,15,14,26.00
2006,07,16,15,15,26.00
2006,07,16,15,16,26.00
2006,07,16,15,17,26.10
2006,07,16,15,18,26.00
2006,07,16,15,19,25.90
2006,07,16,15,20,26.00
2006,07,16,15,21,25.90
2006,07,16,15,22,25.80
2006,07,16,15,23,25.70
2006,07,16,15,24,25.70
2006,07,16,15,25,25.60
2006,07,16,15,26,25.40
2006,07,16,15,27,25.40
2006,07,16,15,28,25.40
2006,07,16,15,29,25.50
2006,07,16,15,30,25.50
2006,07,16,15,31,25.60
2006,07,16,15,32,25.50
2006,07,16,15,33,25.40
2006,07,16,15,34,25.40
2006,07,16,15,35,25.40
2006,07,16,15,36,25.50
2006,07,16,15,37,25.50
2006,07,16,15,38,25.60
2006,07,16,15,39,25.60
2006,07,16,15,40,25.60
2006,07,16,15,41,25.60
2006,07,16,15,42,25.60
2006,07,16,15,43,25.70
2006,07,16,15,44,25.90
2006,07,16,15,45,26.00
2006,07,16,15,46,26.20
2006,07,16,15,47,26.30
2006,07,16,15,48,26.30
2006,07,16,15,49,26.40
2006,07,16,15,50,26.40
2006,07,16,15,51,26.40
2006,07,16,15,52,26.60
2006,07,16,15,53,26.70
2006,07,16,15,54,26.90
2006,07,16,15,55,26.90
2006,07,16,15,56,26.90
2006,07,16,15,57,26.80
2006,07,16,15,58,26.70
2006,07,16,15,59,26.50
2006,07,16,16,00,26.40
2006,07,16,16,01,26.40
2006,07,16,16,02,26.40
2006,07,16,16,03,26.30
2006,07,16,16,04,26.20
2006,07,16,16,05,26.10
2006,07,16,16,06,26.00
2006,07,16,16,07,26.00
2006,07,16,16,08,25.90
2006,07,16,16,09,25.90
2006,07,16,16,10,25.90
2006,07,16,16,11,25.90
2006,07,16,16,12,25.80
2006,07,16,16,13,25.80
2006,07,16,16,14,25.80
2006,07,16,16,15,25.90
2006,07,16,16,16,25.90
2006,07,16,16,17,25.90
2006,07,16,16,18,25.70
2006,07,16,16,19,25.70
2006,07,16,16,20,25.70
2006,07,16,16,21,25.70
2006,07,16,16,22,25.70
2006,07,16,16,23,25.60
2006,07,16,16,24,25.60
2006,07,16,16,25,25.60
2006,07,16,16,26,25.50
2006,07,16,16,27,25.40
2006,07,16,16,28,25.40
2006,07,16,16,29,25.40
2006,07,16,16,30,25.60
2006,07,16,16,31,25.70
2006,07,16,16,32,25.80
2006,07,16,16,33,25.80
2006,07,16,16,34,25.80
2006,07,16,16,35,25.70
2006,07,16,16,36,25.70
2006,07,16,16,37,25.70
2006,07,16,16,38,25.70
2006,07,16,16,39,25.60
2006,07,16,16,40,25.40
2006,07,16,16,41,25.30
2006,07,16,16,42,25.10
2006,07,16,16,43,24.90
2006,07,16,16,44,24.80
2006,07,16,16,45,24.70
2006,07,16,16,46,24.70
2006,07,16,16,47,24.70
2006,07,16,16,48,24.70
2006,07,16,16,49,24.70
2006,07,16,16,50,24.60
2006,07,16,16,51,24.50
2006,07,16,16,52,24.40
2006,07,16,16,53,24.30
2006,07,16,16,54,24.30
2006,07,16,16,55,24.30
2006,07,16,16,56,24.40
2006,07,16,16,57,24.40
2006,07,16,16,58,24.40
2006,07,16,16,59,24.40
2006,07,16,17,00,24.30
2006,07,16,17,01,24.30
2006,07,16,17,02,24.40
2006,07,16,17,03,24.50
2006,07,16,17,04,24.50
2006,07,16,17,05,24.60
2006,07,16,17,06,24.60
2006,07,16,17,07,24.70
2006,07,16,17,08,24.70
2006,07,16,17,09,24.80
2006,07,16,17,10,24.90
2006,07,16,17,11,24.80
2006,07,16,17,12,24.80
2006,07,16,17,13,24.80
2006,07,16,17,14,24.80
2006,07,16,17,15,24.80
2006,07,16,17,16,24.80
2006,07,16,17,17,24.80
2006,07,16,17,18,24.80
2006,07,16,17,19,24.70
2006,07,16,17,20,24.70
2006,07,16,17,21,24.80
2006,07,16,17,22,24.80
2006,07,16,17,23,24.90
2006,07,16,17,24,25.00
2006,07,16,17,25,25.00
2006,07,16,17,26,25.10
2006,07,16,17,27,25.00
2006,07,16,17,28,24.90
2006,07,16,17,29,24.90
2006,07,16,17,30,24.80
2006,07,16,17,31,24.80
2006,07,16,17,32,24.80
2006,07,16,17,33,24.80